Location: Waco, TX
(31.5480°N, 97.1670°W)
Time: 09:42:47
(UTC-05:00)

ISS - Pass Details

Date: 16 October 2019
Orbit: 411 x 421 km, 51.6° (Epoch: 18 October)

Event Time Altitude Azimuth Distance (km) Brightness Sun altitude
Rises 18:54:28 0° 288° (WNW) 2,337 1.3 -0.6°
Reaches altitude 10° 18:58:35 10° 238° (WSW) 1,469 0.4 -1.4°
Maximum altitude 18:58:43 10° 235° (SW) 1,467 0.3 -1.5°
Drops below altitude 10° 18:58:50 10° 233° (SW) 1,468 0.3 -1.5°
Sets 19:02:59 0° 182° (S) 2,322 0.2 -2.4°
